Home > Time Zones > World Clock > Weather > Japan > Kobe > Past weeks

Flag for Japan Weather past 2 weeks in Kobe, Japan

Now
90 °F

Passing clouds.


Feels Like: 96 °F
Forecast: 78 / 94 °F
Wind: 5 mph from Southwest

Location: Osaka International Airport

Current Time: Aug 4, 2015 at 11:18:48 AM

Latest Report: Aug 4, 2015 at 10:00 AM


Visibility: N/A

Pressure: 29.83 "Hg

Humidity: 55%

Dew point: 72 °F

Location of KobeLocation

Historic Weather in Kobe — Graph

°F

Kobe temperature yesterday

Maximum temperature yesterday: 97 °F (at 2:00 PM)
Minimum temperature yesterday: 81 °F (at 5:00 AM)
Average temperature yesterday: 90 °F

Past Weeks' High & Low Weather Summary

 TemperatureHumidityPressure
High99 °F (Aug 1, 2:00 PM)100% (Jul 23, 5:00 AM)29.95 "Hg (Jul 23, 5:00 AM)
Low75 °F (Jul 22, 5:00 AM)37% (Aug 1, 5:00 PM)29.71 "Hg (Jul 27, 3:00 PM)
Average86 °F66%29.83 "Hg
* Reported Jul 20 10:00 AM — Aug 4 10:00 AM, Kobe, Weather by CustomWeather, © 2015

Note: Actual official high and low records may vary slightly from our data, if they occured in-between our weather recording intervals... More about our weather records

Advertising

Kobe weather history for previous 24 hours

 ConditionsComfort  
Time TempWeatherWind HumidityBarometerVisibility
10:00 AM
Tue, Aug 4
90 °FPassing clouds.5 mph55%29.83 "HgN/A
9:00 AM88 °FPassing clouds.2 mph62%29.83 "HgN/A
8:00 AM86 °FScattered clouds.3 mph62%29.86 "HgN/A
7:00 AM82 °FPartly sunny.2 mph74%29.86 "HgN/A
6:00 AM81 °FSunny.5 mph79%29.83 "Hg10 mi
5:00 AM81 °FClear.2 mph79%29.83 "Hg10 mi
8:00 PM
Mon, Aug 3
88 °FPassing clouds.3 mph62%29.83 "HgN/A
7:00 PM88 °FPassing clouds.8 mph62%29.80 "HgN/A
6:00 PM91 °FPartly sunny.6 mph52%29.80 "HgN/A
5:00 PM93 °FPassing clouds.8 mph49%29.77 "HgN/A
4:00 PM95 °FPassing clouds.8 mph44%29.80 "HgN/A
3:00 PM97 °FPassing clouds.8 mph42%29.80 "HgN/A
2:00 PM97 °FPassing clouds.7 mph39%29.80 "HgN/A
1:00 PM95 °FPassing clouds.8 mph41%29.83 "HgN/A
12:00 PM95 °FPassing clouds.7 mph41%29.86 "HgN/A
11:00 AM93 °FPassing clouds.7 mph41%29.86 "HgN/A
Weather by CustomWeather, © 2015

See weather overviewHow to use our weather pages